Regional Weather Roundup
Issued by NWS Goodland, KS

Home | Current Version | Previous Version | Graphics & Text | Print | Product List | Glossary On
Versions: 1 2 3 4 5 6 7 8 9 10 11 12 13 14 15 16 17 18 19 20 21 22 23 24 25 26 27 28 29 30 31 32 33 34 35 36 37 38 39 40 41 42 43 44 45 46 47 48 49 50
000
ASUS43 KGLD 030359
RWRGLD

GOODLAND FORECAST AREA HOURLY WEATHER ROUNDUP
NATIONAL WEATHER SERVICE GOODLAND KS
1000 PM MDT SUN AUG 02 2015

...OFFICIAL OBSERVATIONS...

CITY           SKY/WX    TMP DP  RH WIND       PRES   REMARKS
GOODLAND KS    PTCLDY    73  55  53 SE10      30.02S
HILL CITY KS   PTCLDY    78  62  57 S8        29.93F
IMPERIAL NEB   PTCLDY    76  53  44 S13       29.98R
MCCOOK NEB     PTCLDY    72  57  59 SW7       29.94S
AKRON CO       MOCLDY    73  49  42 S7        30.07R
BURLINGTON CO  PTCLDY    73  56  54 S9        30.04R
LIMON CO       MOCLDY    67  50  54 CALM      30.13R
$$

...UNOFFICIAL OBSERVATIONS...

CITY           SKY/WX    TMP DP  RH WIND       PRES   REMARKS
COLBY KS       CLEAR     73  61  64 SE6       30.00F
NORTON KS      CLEAR     70  55  60 SE5       29.92
SHARON SPRINGS   N/A     75  60  60 SE6G14      N/A
KIT CARSON CO    N/A     76  51  40 MISG        N/A
$$


USA.gov is the U.S. government's official web portal to all federal, state and local government web resources and services.